Hourly Data Report for October 03, 2017

All times are specified in Local Standard Time (LST). Add 1 hour to adjust for Daylight Saving Time where and when it is observed.

IGLOOLIK A
NUNAVUT

69°21'53.000" N
81°48'59.000" W
52.70 m
2402546
YGT

Related Data

No related data is available for this station

Download Data

Hourly Data (October 2017)
Hourly Data Report for October 3, 2017
Temp Definition
°C
Dew Point Temp Definition
°C
Rel Hum Definition
%
Wind Dir Definition
10's deg

Wind Spd Definition
km/h
Visibility Definition
km
Stn Press Definition
kPa
Hmdx Definition


Wind Chill Definition


Weather Definition


TIME
00:00 Legend Double Dagger -3.3 -4.7 90 28 37 LegendMM 98.41   -12 LegendNANA
01:00 Legend Double Dagger -3.9 -5.3 90 28 31 LegendMM 98.40   -12 LegendNANA
02:00 Legend Double Dagger -4.1 -5.6 89 28 35 LegendMM 98.34   -12 LegendNANA
03:00 Legend Double Dagger -4.2 -6.5 84 30 36 LegendMM 98.31   -13 LegendNANA
04:00 Legend Double Dagger -4.8 -6.6 87 28 35 LegendMM 98.27   -13 LegendNANA
05:00 Legend Double Dagger -5.0 -6.7 88 30 34 LegendMM 98.24   -13 LegendNANA
06:00 Legend Double Dagger -5.3 -7.2 87 27 32 LegendMM 98.21   -14 LegendNANA
07:00 Legend Double Dagger -5.5 -7.1 88 28 33 LegendMM 98.19   -14 LegendNANA
08:00 Legend Double Dagger -5.4 -7.2 87 28 30 LegendMM 98.15   -14 LegendNANA
09:00 Legend Double Dagger -5.5 -7.8 84 29 29 LegendMM 98.15   -14 LegendNANA
10:00 Legend Double Dagger -5.5 -8.2 81 29 29 LegendMM 98.10   -14 LegendNANA
11:00 Legend Double Dagger -5.2 -8.3 79 29 27 LegendMM 98.05   -13 LegendNANA
12:00 Legend Double Dagger -4.3 -7.5 78 27 26 LegendMM 97.99   -12 LegendNANA
13:00 Legend Double Dagger -4.4 -7.8 77 25 23 LegendMM 97.93   -11 LegendNANA
14:00 Legend Double Dagger -4.0 -7.0 79 23 23 LegendMM 97.86   -11 LegendNANA
15:00 Legend Double Dagger -4.8 -7.0 85 22 22 LegendMM 97.83   -12 LegendNANA
16:00 Legend Double Dagger -4.5 -6.6 85 17 22 LegendMM 97.75   -11 LegendNANA
17:00 Legend Double Dagger -4.5 -6.4 87 20 19 LegendMM 97.69   -11 LegendNANA
18:00 Legend Double Dagger -4.7 -6.1 90 19 22 LegendMM 97.62   -12 LegendNANA
19:00 Legend Double Dagger -4.4 -5.5 92 19 21 LegendMM 97.56   -11 LegendNANA
20:00 Legend Double Dagger -4.0 -4.9 93 21 20 LegendMM 97.49   -10 LegendNANA
21:00 Legend Double Dagger -3.8 -5.1 90 24 30 LegendMM 97.44   -11 LegendNANA
22:00 Legend Double Dagger -4.1 -5.8 88 24 36 LegendMM 97.40   -12 LegendNANA
23:00 Legend Double Dagger -4.7 -6.5 87 22 37 LegendMM 97.34   -13 LegendNANA

Notes on Data Quality.

Legend

  • E = Estimated
  • M = Missing
  • NA = Not Available
  • ‡ = Partner data that is not subject to review by the National Climate Archives
Date modified: